Location: Borkenes
(68.7830°N, 16.1830°E)
Time: 05:41:55
(UTC+01:00)

ZACube-1 - Visible Passes

Search period start: 14 December 2019 00:00
Search period end: 24 December 2019 00:00
Orbit: 584 x 667 km, 97.6° (Epoch: 13 December)

Date Brightness Start Highest point End Pass type
(mag) Time Alt. Az. Time Alt. Az. Time Alt. Az.
14 Dec ? 04:24:06 10° NE 04:25:53 12° ENE 04:27:39 10° E visible
14 Dec ? 05:59:21 10° NNE 06:03:24 38° E 06:07:21 10° SSE visible
14 Dec ? 07:35:40 10° NNE 07:39:57 65° WNW 07:44:08 10° SW visible
14 Dec ? 09:12:07 10° NNE 09:15:43 26° NW 09:19:14 10° W visible
14 Dec ? 15:32:16 10° SE 15:36:33 49° NE 15:40:45 10° NNW visible
14 Dec ? 17:08:28 10° S 17:12:52 55° WSW 17:17:11 10° NNW visible
14 Dec ? 18:47:01 10° SW 18:50:03 18° W 18:53:04 10° NW visible
15 Dec ? 04:42:37 10° NE 04:45:11 15° ENE 04:47:44 10° ESE visible
15 Dec ? 06:18:19 10° NNE 06:22:31 49° E 06:26:36 10° S visible
15 Dec ? 07:54:42 10° NNE 07:58:53 52° NW 08:02:59 10° SW visible
15 Dec ? 14:16:09 10° E 14:19:45 25° NE 14:23:18 10° NNW visible
15 Dec ? 15:51:06 10° SE 15:55:29 60° ENE 15:59:46 10° NNW visible
15 Dec ? 17:27:42 10° S 17:31:57 43° W 17:36:08 10° NNW visible
15 Dec ? 19:06:56 10° WSW 19:09:20 14° WNW 19:11:42 10° NW visible
16 Dec ? 05:01:21 10° NE 05:04:27 19° E 05:07:31 10° SE visible
16 Dec ? 06:37:18 10° NNE 06:41:34 63° ESE 06:45:44 10° S visible
16 Dec ? 08:13:44 10° NNE 08:17:48 42° NW 08:21:46 10° WSW visible
16 Dec ? 14:34:47 10° E 14:38:35 29° NE 14:42:17 10° NNW visible
16 Dec ? 16:10:01 10° SSE 16:14:26 75° ENE 16:18:47 10° NNW visible
16 Dec ? 17:47:01 10° SSW 17:51:05 34° W 17:55:05 10° NNW visible
16 Dec ? 19:27:19 10° W 19:28:39 11° WNW 19:29:59 10° NW visible
17 Dec ? 05:20:11 10° NNE 05:23:40 24° E 05:27:06 10° SE visible
17 Dec ? 06:56:18 10° NNE 07:00:37 80° ESE 07:04:48 10° SSW visible
17 Dec ? 08:32:45 10° NNE 08:36:40 35° NW 08:40:29 10° WSW visible
17 Dec ? 14:53:28 10° ESE 14:57:25 33° NE 15:01:18 10° NNW visible
17 Dec ? 16:29:00 10° SSE 16:33:25 88° WSW 16:37:46 10° NNW visible
17 Dec ? 18:06:27 10° SSW 18:10:14 27° W 18:13:59 10° NNW visible
18 Dec ? 05:39:05 10° NNE 05:42:52 30° E 05:46:33 10° SSE visible
18 Dec ? 07:15:19 10° NNE 07:19:36 81° WNW 07:23:47 10° SSW visible
18 Dec ? 08:51:47 10° NNE 08:55:30 30° NW 08:59:10 10° WSW visible
18 Dec ? 15:12:11 10° ESE 15:16:17 40° NE 15:20:18 10° NNW visible
18 Dec ? 16:48:02 10° SSE 16:52:27 71° WSW 16:56:46 10° NNW visible
18 Dec ? 18:26:00 10° SW 18:29:26 22° W 18:32:50 10° NW visible
19 Dec ? 04:22:50 10° NE 04:24:29 12° ENE 04:26:08 10° E visible
19 Dec ? 05:58:00 10° NNE 06:02:00 38° E 06:05:54 10° SSE visible
19 Dec ? 07:34:20 10° NNE 07:38:34 65° WNW 07:42:42 10° SW visible
19 Dec ? 09:10:48 10° NNE 09:14:20 26° NW 09:17:47 10° W visible
19 Dec ? 15:30:58 10° SE 15:35:11 48° NE 15:39:19 10° NNW visible
19 Dec ? 17:07:10 10° S 17:11:30 55° WSW 17:15:45 10° NNW visible
19 Dec ? 18:45:43 10° WSW 18:48:40 18° W 18:51:36 10° NW visible
20 Dec ? 04:41:18 10° NE 04:43:47 15° ENE 04:46:15 10° ESE visible
20 Dec ? 06:16:58 10° NNE 06:21:06 48° E 06:25:09 10° S visible
20 Dec ? 07:53:21 10° NNE 07:57:30 52° WNW 08:01:33 10° SW visible
20 Dec ? 14:14:52 10° E 14:18:23 25° NE 14:21:50 10° NNW visible
20 Dec ? 15:49:48 10° SE 15:54:07 59° ENE 15:58:19 10° NNW visible
20 Dec ? 17:26:24 10° S 17:30:35 43° W 17:34:42 10° NNW visible
20 Dec ? 19:05:39 10° WSW 19:07:57 14° WNW 19:10:14 10° NW visible
21 Dec ? 05:00:01 10° NE 05:03:02 19° E 05:06:02 10° SE visible
21 Dec ? 06:35:57 10° NNE 06:40:10 62° ESE 06:44:18 10° S visible
21 Dec ? 08:12:23 10° NNE 08:16:23 42° NW 08:20:20 10° WSW visible
21 Dec ? 14:33:29 10° E 14:37:12 28° NE 14:40:51 10° NNW visible
21 Dec ? 16:08:42 10° SSE 16:13:03 74° ENE 16:17:20 10° NNW visible
21 Dec ? 17:45:43 10° SSW 17:49:42 34° W 17:53:38 10° NNW visible
21 Dec ? 19:26:04 10° W 19:27:16 11° WNW 19:28:26 10° NW visible
22 Dec ? 05:18:49 10° NNE 05:22:16 23° E 05:25:38 10° SE visible
22 Dec ? 06:54:57 10° NNE 06:59:12 80° ESE 07:03:22 10° SSW visible
22 Dec ? 08:31:25 10° NNE 08:35:16 35° NW 08:39:03 10° WSW visible
22 Dec ? 14:52:10 10° ESE 14:56:02 33° NE 14:59:51 10° NNW visible
22 Dec ? 16:27:40 10° SSE 16:32:03 89° WSW 16:36:20 10° NNW visible
22 Dec ? 18:05:08 10° SSW 18:08:51 27° W 18:12:32 10° NNW visible
23 Dec ? 05:37:43 10° NNE 05:41:26 29° E 05:45:06 10° SSE visible
23 Dec ? 07:13:57 10° NNE 07:18:11 82° WNW 07:22:21 10° SSW visible
23 Dec ? 08:50:26 10° NNE 08:54:06 29° NW 08:57:44 10° WSW visible
23 Dec ? 15:10:53 10° ESE 15:14:54 39° NE 15:18:51 10° NNW visible
23 Dec ? 16:46:43 10° SSE 16:51:04 71° WSW 16:55:19 10° NNW visible
23 Dec ? 18:24:41 10° SW 18:28:03 22° W 18:31:23 10° NW visible
